Estación de Contra Coronel
Ultimos registro cada 15 minutos 72
| N° | Estación | Fecha / Hora | Temperatura | Humedad | Lluvia | Velocidad | Dirección | Radiación | Presion |
| 72 | Contra Coronel | 08-05-2026 17:45 | 10,1 | 75,1 | 0 | 0 | 192 | 5,6 | 1020,6 |
| 71 | Contra Coronel | 08-05-2026 17:30 | 11,1 | 71,2 | 0 | 1,7 | 183 | 21,9 | 1020,3 |
| 70 | Contra Coronel | 08-05-2026 17:15 | 11,7 | 71,8 | 0 | 1 | 191 | 58,1 | 1020 |
| 69 | Contra Coronel | 08-05-2026 17:00 | 12,2 | 70 | 0 | 1 | 168 | 104,4 | 1019,8 |
| 68 | Contra Coronel | 08-05-2026 16:45 | 12,2 | 70,3 | 0 | 2,3 | 170 | 141,9 | 1019,4 |
| 67 | Contra Coronel | 08-05-2026 16:30 | 12,4 | 71,2 | 0 | 2 | 166 | 180,6 | 1019,1 |
| 66 | Contra Coronel | 08-05-2026 16:15 | 12,4 | 72,6 | 0 | 2,7 | 170 | 213,1 | 1018,9 |
| 65 | Contra Coronel | 08-05-2026 16:00 | 12,5 | 73,1 | 0 | 2,7 | 157 | 246,9 | 1018,7 |
| 64 | Contra Coronel | 08-05-2026 15:45 | 12,2 | 73,5 | 0 | 3,7 | 164 | 284,4 | 1018,5 |
| 63 | Contra Coronel | 08-05-2026 15:30 | 12,3 | 74,3 | 0 | 3,3 | 164 | 314,4 | 1018,2 |
| 62 | Contra Coronel | 08-05-2026 15:15 | 12,4 | 75,9 | 0 | 2,7 | 171 | 344,4 | 1018,2 |
| 61 | Contra Coronel | 08-05-2026 15:00 | 12,4 | 75,9 | 0 | 2 | 163 | 378,1 | 1018 |
| 60 | Contra Coronel | 08-05-2026 14:45 | 11,6 | 79,4 | 0 | 2,3 | 164 | 189,4 | 1018 |
| 59 | Contra Coronel | 08-05-2026 14:30 | 11,1 | 80,5 | 0 | 2,7 | 171 | 246,9 | 1018 |
| 58 | Contra Coronel | 08-05-2026 14:15 | 11 | 79,1 | 0 | 3 | 156 | 226,9 | 1017,7 |
| 57 | Contra Coronel | 08-05-2026 14:00 | 11,8 | 80 | 0 | 2,7 | 164 | 263,1 | 1017,5 |
| 56 | Contra Coronel | 08-05-2026 13:45 | 11,4 | 81,7 | 0 | 1,7 | 185 | 475,6 | 1017,2 |
| 55 | Contra Coronel | 08-05-2026 13:30 | 10,1 | 85,3 | 0 | 2,7 | 180 | 225,6 | 1017,5 |
| 54 | Contra Coronel | 08-05-2026 13:15 | 9,6 | 84,7 | 0 | 2,7 | 178 | 148,1 | 1017,8 |
| 53 | Contra Coronel | 08-05-2026 13:00 | 9,6 | 85,4 | 0 | 2,3 | 185 | 163,1 | 1017,8 |
| 52 | Contra Coronel | 08-05-2026 12:45 | 9,6 | 86,3 | 0 | 2 | 180 | 121,9 | 1017,8 |
| 51 | Contra Coronel | 08-05-2026 12:30 | 9,8 | 86,5 | 0 | 2,7 | 190 | 359,4 | 1017,8 |
| 50 | Contra Coronel | 08-05-2026 12:15 | 9,5 | 90,1 | 0 | 2,3 | 178 | 281,9 | 1017,9 |
| 49 | Contra Coronel | 08-05-2026 12:00 | 8,9 | 92,9 | 0 | 2 | 178 | 140,6 | 1017,9 |
| 48 | Contra Coronel | 08-05-2026 11:45 | 8,7 | 94,6 | 0 | 2 | 184 | 70,6 | 1017,7 |
| 47 | Contra Coronel | 08-05-2026 11:30 | 8,7 | 95 | 0 | 2,3 | 175 | 99,4 | 1017,8 |
| 46 | Contra Coronel | 08-05-2026 11:15 | 9,5 | 92,7 | 0 | 2,7 | 183 | 78,1 | 1017,5 |
| 45 | Contra Coronel | 08-05-2026 11:00 | 9,2 | 95,3 | 0 | 1 | 204 | 205,6 | 1017,5 |
| 44 | Contra Coronel | 08-05-2026 10:45 | 8,7 | 97,6 | 0 | 1 | 222 | 164,4 | 1017,5 |
| 43 | Contra Coronel | 08-05-2026 10:30 | 8,4 | 98,6 | 0 | 1,3 | 185 | 99,4 | 1017,6 |
| 42 | Contra Coronel | 08-05-2026 10:15 | 8,2 | 98,9 | 0 | 1,3 | 190 | 175,6 | 1017,2 |
| 41 | Contra Coronel | 08-05-2026 10:00 | 8 | 99,1 | 0 | 1,3 | 168 | 104,4 | 1017,2 |
| 40 | Contra Coronel | 08-05-2026 09:45 | 7,8 | 99,3 | 0 | 1,3 | 184 | 106,9 | 1017,1 |
| 39 | Contra Coronel | 08-05-2026 09:30 | 7,6 | 99,1 | 0 | 1 | 181 | 68,1 | 1017 |
| 38 | Contra Coronel | 08-05-2026 09:15 | 7,6 | 99,3 | 0 | 1 | 188 | 61,9 | 1016,6 |
| 37 | Contra Coronel | 08-05-2026 09:00 | 7,4 | 99,3 | 0 | 1,3 | 178 | 40,6 | 1016,5 |
| 36 | Contra Coronel | 08-05-2026 08:45 | 7,3 | 99,2 | 0 | 1 | 159 | 24,4 | 1016,3 |
| 35 | Contra Coronel | 08-05-2026 08:30 | 7,2 | 99,2 | 0 | 0 | 159 | 21,9 | 1015,9 |
| 34 | Contra Coronel | 08-05-2026 08:15 | 7,1 | 99,2 | 0 | 0 | 159 | 15,6 | 1015,6 |
| 33 | Contra Coronel | 08-05-2026 08:00 | 7 | 99,1 | 0 | 0,3 | 153 | 9,4 | 1015,4 |
| 32 | Contra Coronel | 08-05-2026 07:45 | 6,9 | 99,1 | 0 | 1 | 126 | 0,6 | 1015,5 |
| 31 | Contra Coronel | 08-05-2026 07:30 | 6,9 | 99 | 0 | 0,7 | 146 | 0,6 | 1015,5 |
| 30 | Contra Coronel | 08-05-2026 07:15 | 6,9 | 99 | 0 | 1 | 142 | 0,6 | 1015,5 |
| 29 | Contra Coronel | 08-05-2026 07:00 | 6,9 | 98,9 | 0 | 1 | 154 | 0,6 | 1015,5 |
| 28 | Contra Coronel | 08-05-2026 06:45 | 7 | 98,8 | 0 | 1 | 135 | 0,6 | 1015,1 |
| 27 | Contra Coronel | 08-05-2026 06:30 | 7,1 | 98,7 | 0 | 0,3 | 121 | 0,6 | 1014,9 |
| 26 | Contra Coronel | 08-05-2026 06:15 | 7 | 98,6 | 0 | 0,3 | 122 | 0,6 | 1014,7 |
| 25 | Contra Coronel | 08-05-2026 06:00 | 7 | 98,5 | 0 | 0,7 | 133 | 0,6 | 1014,5 |
| 24 | Contra Coronel | 08-05-2026 05:45 | 7 | 98,3 | 0 | 0,3 | 97 | 0,6 | 1014,2 |
| 23 | Contra Coronel | 08-05-2026 05:30 | 7 | 98,1 | 0 | 0,3 | 138 | 0,6 | 1014,1 |
| 22 | Contra Coronel | 08-05-2026 05:15 | 7 | 97,9 | 0 | 0,3 | 87 | 0,6 | 1014 |
| 21 | Contra Coronel | 08-05-2026 05:00 | 7 | 97,7 | 0 | 0,3 | 67 | 0,6 | 1013,8 |
| 20 | Contra Coronel | 08-05-2026 04:45 | 7 | 97,6 | 0 | 0,3 | 74 | 0,6 | 1013,9 |
| 19 | Contra Coronel | 08-05-2026 04:30 | 6,9 | 97,6 | 0 | 1 | 21 | 0,6 | 1013,8 |
| 18 | Contra Coronel | 08-05-2026 04:15 | 7 | 97,6 | 0 | 1 | 35 | 0,6 | 1013,9 |
| 17 | Contra Coronel | 08-05-2026 04:00 | 7 | 97,5 | 0 | 1 | 60 | 0,6 | 1013,9 |
| 16 | Contra Coronel | 08-05-2026 03:45 | 6,9 | 97,5 | 0 | 1,3 | 27 | 0,6 | 1013,5 |
| 15 | Contra Coronel | 08-05-2026 03:30 | 6,8 | 97,7 | 0 | 1,3 | 37 | 0,6 | 1013,9 |
| 14 | Contra Coronel | 08-05-2026 03:15 | 6,8 | 97,5 | 0,2 | 1,3 | 44 | 0,6 | 1014,1 |
| 13 | Contra Coronel | 08-05-2026 03:00 | 6,8 | 97,2 | 0 | 1 | 105 | 0,6 | 1014,4 |
| 12 | Contra Coronel | 08-05-2026 02:45 | 6,8 | 97,1 | 0 | 1,3 | 56 | 0,6 | 1013,9 |
| 11 | Contra Coronel | 08-05-2026 02:30 | 6,7 | 97,1 | 0 | 1,3 | 74 | 0,6 | 1014,2 |
| 10 | Contra Coronel | 08-05-2026 02:15 | 6,7 | 97,3 | 0 | 1 | 55 | 0,6 | 1014,2 |
| 9 | Contra Coronel | 08-05-2026 02:00 | 6,6 | 97,8 | 0 | 1,7 | 55 | 0,6 | 1014 |
| 8 | Contra Coronel | 08-05-2026 01:45 | 6,5 | 98,6 | 0 | 2 | 21 | 0,6 | 1014 |
| 7 | Contra Coronel | 08-05-2026 01:30 | 6,5 | 96,6 | 0,2 | 2 | 10 | 0,6 | 1014,3 |
| 6 | Contra Coronel | 08-05-2026 01:15 | 6,5 | 96,3 | 0 | 1,7 | 18 | 0,6 | 1014,8 |
| 5 | Contra Coronel | 08-05-2026 01:00 | 6,5 | 96,5 | 0 | 1,7 | 39 | 0,6 | 1015,2 |
| 4 | Contra Coronel | 08-05-2026 00:45 | 6,5 | 96,4 | 0 | 1,7 | 32 | 0,6 | 1015,4 |
| 3 | Contra Coronel | 08-05-2026 00:30 | 6,6 | 96,3 | 0 | 2 | 35 | 0,6 | 1015,6 |
| 2 | Contra Coronel | 08-05-2026 00:15 | 6,6 | 95,9 | 0 | 2,3 | 27 | 0,6 | 1015,8 |
| 1 | Contra Coronel | 08-05-2026 00:00 | 6,6 | 96 | 0 | 1,3 | 37 | 0,6 | 1015,8 |